Location: Unspecified
(40.7945°N, 0.0000°E)
Time: 13:36:21
(UTC+00:00)

Courier 1B - Pass Details

Date: 23 January 2021
Orbit: 962 x 1209 km, 28.3° (Epoch: 07 March)

Event Time Altitude Azimuth Distance (km) Brightness Sun altitude
Rises 03:33:18 0° 256° (WSW) 3,634 - -42.3°
Reaches altitude 10° 03:36:34 10° 240° (WSW) 2,687 - -41.7°
Maximum altitude 03:41:14 21° 194° (SSW) 2,013 - -40.8°
Exits shadow 03:45:38 11° 149° (SSE) 2,643 9.9 -40.0°
Drops below altitude 10° 03:46:00 10° 147° (SSE) 2,736 10.0 -39.9°
Sets 03:49:22 0° 132° (SE) 3,718 11.0 -39.3°
